Location: Ernez
(36.4595°N, 29.8755°E)
Time: 09:06:57
(UTC+00:00)

SJ 16-02 - Pass Details

Date: 13 November 2025
Orbit: 585 x 594 km, 75.0° (Epoch: 05 December)

Event Time Altitude Azimuth Distance (km) Brightness Sun altitude
Rises 17:33:56 0° 219° (SW) 2,822 5.2 -32.4°
Reaches altitude 10° 17:36:21 10° 230° (SW) 1,925 4.4 -32.9°
Enters shadow 17:38:21 22° 250° (WSW) 1,311 3.5 -33.3°
